Time,TemperatureF,DewpointF,PressureIn,WindDirection,WindDirectionDegrees,WindSpeedMPH,WindSpeedGustMPH,Humidity,HourlyPrecipIn,Conditions,Clouds,dailyrainin,SolarRadiationWatts/m^2,SoftwareType,DateUTC
2013-07-31 00:00:00,67.1,46.2,29.86,NW,318,0.0,-999.0,42,-99.99,,,0.00,0.0,cwc,2013-07-31 06:00:00,
2013-07-31 00:05:00,66.2,45.3,29.86,NW,318,2.0,-999.0,42,-99.99,,,0.00,0.0,cwc,2013-07-31 06:05:00,
2013-07-31 00:10:00,65.7,45.2,29.86,NW,317,1.0,-999.0,43,-99.99,,,0.00,0.0,cwc,2013-07-31 06:10:00,
2013-07-31 00:15:00,65.6,45.1,29.86,NW,317,0.0,-999.0,43,-99.99,,,0.00,0.0,cwc,2013-07-31 06:15:00,
2013-07-31 00:25:00,64.9,45.1,29.86,NW,318,0.0,-999.0,45,-99.99,,,0.00,0.0,cwc,2013-07-31 06:25:00,
2013-07-31 00:30:00,64.4,44.6,29.87,NW,318,0.0,-999.0,45,-99.99,,,0.00,0.0,cwc,2013-07-31 06:30:00,
2013-07-31 00:40:00,63.8,44.4,29.87,NW,317,0.0,-999.0,46,-99.99,,,0.00,0.0,cwc,2013-07-31 06:40:00,
2013-07-31 00:45:00,63.8,44.4,29.86,NW,317,0.0,-999.0,46,-99.99,,,0.00,0.0,cwc,2013-07-31 06:45:00,
2013-07-31 00:50:00,63.7,43.9,29.87,NW,317,2.0,-999.0,45,-99.99,,,0.00,0.0,cwc,2013-07-31 06:50:00,
2013-07-31 00:55:00,63.4,43.6,29.86,NW,317,0.0,-999.0,45,-99.99,,,0.00,0.0,cwc,2013-07-31 06:55:00,
2013-07-31 01:00:00,63.5,44.1,29.87,NW,317,0.0,-999.0,46,-99.99,,,0.00,0.0,cwc,2013-07-31 07:00:00,
2013-07-31 01:05:00,63.3,43.5,29.87,NW,317,0.0,-999.0,45,-99.99,,,0.00,0.0,cwc,2013-07-31 07:05:00,
2013-07-31 01:10:00,63.2,43.8,29.87,NW,317,0.0,-999.0,46,-99.99,,,0.00,0.0,cwc,2013-07-31 07:10:00,
2013-07-31 01:15:00,62.8,43.4,29.87,NW,317,1.0,-999.0,46,-99.99,,,0.00,0.0,cwc,2013-07-31 07:15:00,
2013-07-31 01:20:00,62.4,43.0,29.87,NW,317,0.0,-999.0,46,-99.99,,,0.00,0.0,cwc,2013-07-31 07:20:00,
2013-07-31 01:25:00,62.2,43.5,29.87,NW,317,0.0,-999.0,48,-99.99,,,0.00,0.0,cwc,2013-07-31 07:25:00,
2013-07-31 01:30:00,62.0,43.6,29.87,NW,317,0.0,-999.0,49,-99.99,,,0.00,0.0,cwc,2013-07-31 07:30:00,
2013-07-31 01:35:00,61.6,43.2,29.88,NW,317,2.0,-999.0,49,-99.99,,,0.00,0.0,cwc,2013-07-31 07:35:00,
2013-07-31 01:40:00,61.3,42.6,29.88,NW,317,3.0,-999.0,48,-99.99,,,0.00,0.0,cwc,2013-07-31 07:40:00,
2013-07-31 01:50:00,61.4,42.7,29.88,NW,317,2.0,-999.0,48,-99.99,,,0.00,0.0,cwc,2013-07-31 07:50:00,
2013-07-31 02:00:00,61.7,43.0,29.88,NW,314,2.0,-999.0,48,-99.99,,,0.00,0.0,cwc,2013-07-31 08:00:00,
2013-07-31 02:05:00,61.6,42.9,29.88,NW,314,2.0,-999.0,48,-99.99,,,0.00,0.0,cwc,2013-07-31 08:05:00,
2013-07-31 02:10:00,61.4,42.7,29.88,NW,314,0.0,-999.0,48,-99.99,,,0.00,0.0,cwc,2013-07-31 08:10:00,
2013-07-31 02:15:00,61.2,42.8,29.88,NW,314,0.0,-999.0,49,-99.99,,,0.00,0.0,cwc,2013-07-31 08:15:00,
2013-07-31 02:20:00,61.0,43.4,29.89,NW,314,0.0,-999.0,51,-99.99,,,0.00,0.0,cwc,2013-07-31 08:20:00,
2013-07-31 02:25:00,60.6,43.0,29.88,NW,314,3.0,-999.0,51,-99.99,,,0.00,0.0,cwc,2013-07-31 08:25:00,
2013-07-31 02:30:00,60.0,42.4,29.88,NW,306,5.0,-999.0,51,-99.99,,,0.00,0.0,cwc,2013-07-31 08:30:00,
2013-07-31 02:35:00,59.9,42.3,29.89,WNW,300,1.0,-999.0,51,-99.99,,,0.00,0.0,cwc,2013-07-31 08:35:00,
2013-07-31 02:40:00,59.9,42.3,29.89,WNW,300,3.0,-999.0,51,-99.99,,,0.00,0.0,cwc,2013-07-31 08:40:00,
2013-07-31 02:45:00,59.8,42.5,29.89,WNW,300,0.0,-999.0,52,-99.99,,,0.00,0.0,cwc,2013-07-31 08:45:00,
2013-07-31 02:50:00,59.7,42.1,29.89,WNW,300,0.0,-999.0,51,-99.99,,,0.00,0.0,cwc,2013-07-31 08:50:00,
2013-07-31 02:55:00,59.6,42.0,29.89,WNW,300,0.0,-999.0,51,-99.99,,,0.00,0.0,cwc,2013-07-31 08:55:00,
2013-07-31 03:05:00,59.2,42.6,29.89,WNW,300,0.0,-999.0,54,-99.99,,,0.00,0.0,cwc,2013-07-31 09:05:00,
2013-07-31 03:15:00,59.0,42.1,29.89,WNW,300,2.0,-999.0,53,-99.99,,,0.00,0.0,cwc,2013-07-31 09:15:00,
2013-07-31 03:20:00,58.6,41.7,29.89,WNW,300,1.0,-999.0,53,-99.99,,,0.00,0.0,cwc,2013-07-31 09:20:00,
2013-07-31 03:25:00,58.4,41.5,29.89,WNW,300,4.0,-999.0,53,-99.99,,,0.00,0.0,cwc,2013-07-31 09:25:00,
2013-07-31 03:30:00,58.4,41.5,29.89,WNW,300,3.0,-999.0,53,-99.99,,,0.00,0.0,cwc,2013-07-31 09:30:00,
2013-07-31 03:35:00,58.6,41.7,29.89,WNW,300,1.0,-999.0,53,-99.99,,,0.00,0.0,cwc,2013-07-31 09:35:00,
2013-07-31 03:40:00,58.5,41.9,29.89,WNW,300,0.0,-999.0,54,-99.99,,,0.00,0.0,cwc,2013-07-31 09:40:00,
2013-07-31 03:45:00,58.3,41.7,29.89,WNW,300,2.0,-999.0,54,-99.99,,,0.00,0.0,cwc,2013-07-31 09:45:00,
2013-07-31 03:50:00,57.7,41.5,29.89,WNW,300,2.0,-999.0,55,-99.99,,,0.00,0.0,cwc,2013-07-31 09:50:00,
2013-07-31 03:55:00,57.6,41.0,29.89,WNW,300,2.0,-999.0,54,-99.99,,,0.00,0.0,cwc,2013-07-31 09:55:00,
2013-07-31 04:00:00,57.8,41.6,29.89,WNW,300,1.0,-999.0,55,-99.99,,,0.00,0.0,cwc,2013-07-31 10:00:00,
2013-07-31 04:05:00,57.7,41.9,29.89,WNW,300,0.0,-999.0,56,-99.99,,,0.00,0.0,cwc,2013-07-31 10:05:00,
2013-07-31 04:10:00,57.3,41.5,29.89,WNW,300,2.0,-999.0,56,-99.99,,,0.00,0.0,cwc,2013-07-31 10:10:00,
2013-07-31 04:15:00,56.8,41.3,29.89,WNW,300,0.0,-999.0,57,-99.99,,,0.00,0.0,cwc,2013-07-31 10:15:00,
2013-07-31 04:20:00,56.5,41.0,29.89,WNW,300,2.0,-999.0,57,-99.99,,,0.00,0.0,cwc,2013-07-31 10:20:00,
2013-07-31 04:25:00,56.3,40.8,29.90,WNW,300,1.0,-999.0,57,-99.99,,,0.00,0.0,cwc,2013-07-31 10:25:00,
2013-07-31 04:30:00,56.3,40.5,29.90,WNW,300,1.0,-999.0,56,-99.99,,,0.00,0.0,cwc,2013-07-31 10:30:00,
2013-07-31 04:40:00,56.4,40.6,29.90,WNW,300,1.0,-999.0,56,-99.99,,,0.00,0.0,cwc,2013-07-31 10:40:00,
2013-07-31 04:45:00,56.3,40.8,29.90,WNW,300,0.0,-999.0,57,-99.99,,,0.00,0.0,cwc,2013-07-31 10:45:00,
2013-07-31 04:55:00,55.6,40.1,29.90,WNW,300,0.0,-999.0,57,-99.99,,,0.00,0.0,cwc,2013-07-31 10:55:00,
2013-07-31 05:00:00,55.7,40.2,29.91,WNW,300,0.0,-999.0,57,-99.99,,,0.00,0.0,cwc,2013-07-31 11:00:00,
2013-07-31 05:05:00,55.9,40.4,29.91,WNW,300,1.0,-999.0,57,-99.99,,,0.00,0.0,cwc,2013-07-31 11:05:00,
2013-07-31 05:10:00,56.0,40.5,29.91,WNW,300,0.0,-999.0,57,-99.99,,,0.00,0.0,cwc,2013-07-31 11:10:00,
2013-07-31 05:15:00,56.0,40.5,29.91,WNW,300,0.0,-999.0,57,-99.99,,,0.00,0.0,cwc,2013-07-31 11:15:00,
2013-07-31 05:20:00,55.8,40.3,29.91,WNW,300,1.0,-999.0,57,-99.99,,,0.00,0.0,cwc,2013-07-31 11:20:00,
2013-07-31 05:30:00,55.5,40.4,29.92,WNW,300,0.0,-999.0,58,-99.99,,,0.00,0.0,cwc,2013-07-31 11:30:00,
2013-07-31 05:35:00,55.4,41.4,29.92,WNW,300,0.0,-999.0,61,-99.99,,,0.00,0.0,cwc,2013-07-31 11:35:00,
2013-07-31 05:40:00,54.9,40.9,29.92,WNW,300,2.0,-999.0,61,-99.99,,,0.00,0.0,cwc,2013-07-31 11:40:00,
2013-07-31 05:45:00,54.4,40.4,29.92,WNW,300,0.0,-999.0,61,-99.99,,,0.00,0.0,cwc,2013-07-31 11:45:00,
2013-07-31 05:50:00,54.0,40.3,29.92,WNW,300,0.0,-999.0,62,-99.99,,,0.00,0.0,cwc,2013-07-31 11:50:00,
2013-07-31 05:55:00,53.7,40.4,29.93,WNW,300,0.0,-999.0,63,-99.99,,,0.00,0.0,cwc,2013-07-31 11:55:00,
2013-07-31 06:00:00,53.4,40.4,29.93,WNW,300,0.0,-999.0,64,-99.99,,,0.00,0.0,cwc,2013-07-31 12:00:00,
2013-07-31 06:10:00,52.7,40.8,29.93,WNW,300,4.0,-999.0,67,-99.99,,,0.00,0.0,cwc,2013-07-31 12:10:00,
2013-07-31 06:15:00,52.4,40.2,29.94,WNW,300,0.0,-999.0,66,-99.99,,,0.00,5.0,cwc,2013-07-31 12:15:00,
2013-07-31 06:20:00,52.3,39.7,29.94,WNW,300,0.0,-999.0,65,-99.99,,,0.00,9.0,cwc,2013-07-31 12:20:00,
2013-07-31 06:25:00,52.2,40.7,29.94,WNW,300,1.0,-999.0,68,-99.99,,,0.00,11.0,cwc,2013-07-31 12:25:00,
2013-07-31 06:30:00,52.0,40.5,29.94,WNW,300,2.0,-999.0,68,-99.99,,,0.00,16.0,cwc,2013-07-31 12:30:00,
2013-07-31 06:35:00,52.0,40.1,29.94,WNW,300,3.0,-999.0,67,-99.99,,,0.00,18.0,cwc,2013-07-31 12:35:00,
2013-07-31 06:40:00,52.6,40.7,29.95,WNW,300,0.0,-999.0,67,-99.99,,,0.00,37.0,cwc,2013-07-31 12:40:00,
2013-07-31 06:45:00,53.0,41.1,29.95,WNW,300,0.0,-999.0,67,-99.99,,,0.00,35.0,cwc,2013-07-31 12:45:00,
2013-07-31 06:50:00,53.3,41.8,29.95,WNW,300,0.0,-999.0,68,-99.99,,,0.00,32.0,cwc,2013-07-31 12:50:00,
2013-07-31 06:55:00,53.6,42.1,29.95,WNW,300,0.0,-999.0,68,-99.99,,,0.00,81.0,cwc,2013-07-31 12:55:00,
2013-07-31 07:00:00,53.9,42.4,29.96,WNW,300,0.0,-999.0,68,-99.99,,,0.00,100.0,cwc,2013-07-31 13:00:00,
2013-07-31 07:05:00,54.1,42.2,29.96,WNW,300,0.0,-999.0,67,-99.99,,,0.00,121.0,cwc,2013-07-31 13:05:00,
2013-07-31 07:10:00,54.6,42.7,29.96,WNW,300,2.0,-999.0,67,-99.99,,,0.00,137.0,cwc,2013-07-31 13:10:00,
2013-07-31 07:15:00,55.0,42.0,29.96,WNW,300,0.0,-999.0,64,-99.99,,,0.00,156.0,cwc,2013-07-31 13:15:00,
2013-07-31 07:20:00,55.8,43.2,29.96,WNW,300,0.0,-999.0,65,-99.99,,,0.00,176.0,cwc,2013-07-31 13:20:00,
2013-07-31 07:25:00,56.6,42.9,29.97,WNW,300,0.0,-999.0,62,-99.99,,,0.00,167.0,cwc,2013-07-31 13:25:00,
2013-07-31 07:30:00,57.3,43.6,29.96,WNW,300,2.0,-999.0,62,-99.99,,,0.00,206.0,cwc,2013-07-31 13:30:00,
2013-07-31 07:40:00,58.7,43.9,29.97,WNW,300,0.0,-999.0,59,-99.99,,,0.00,250.0,cwc,2013-07-31 13:40:00,
2013-07-31 07:45:00,59.5,44.4,29.97,WNW,300,0.0,-999.0,58,-99.99,,,0.00,227.0,cwc,2013-07-31 13:45:00,
2013-07-31 07:50:00,60.7,44.5,29.97,WNW,300,0.0,-999.0,55,-99.99,,,0.00,241.0,cwc,2013-07-31 13:50:00,
2013-07-31 07:55:00,61.7,44.8,29.97,WNW,300,0.0,-999.0,53,-99.99,,,0.00,283.0,cwc,2013-07-31 13:55:00,
2013-07-31 08:00:00,62.7,45.4,29.97,WNW,300,0.0,-999.0,52,-99.99,,,0.00,318.0,cwc,2013-07-31 14:00:00,
2013-07-31 08:05:00,63.8,46.2,29.97,WNW,300,0.0,-999.0,51,-99.99,,,0.00,294.0,cwc,2013-07-31 14:05:00,
2013-07-31 08:10:00,64.7,47.4,29.97,WNW,300,0.0,-999.0,52,-99.99,,,0.00,346.0,cwc,2013-07-31 14:10:00,
2013-07-31 08:15:00,65.3,46.6,29.96,WNW,300,1.0,-999.0,48,-99.99,,,0.00,371.0,cwc,2013-07-31 14:15:00,
2013-07-31 08:20:00,66.0,47.3,29.96,WNW,300,1.0,-999.0,48,-99.99,,,0.00,388.0,cwc,2013-07-31 14:20:00,
2013-07-31 08:25:00,66.5,46.3,29.96,WNW,300,0.0,-999.0,44,-99.99,,,0.00,401.0,cwc,2013-07-31 14:25:00,
2013-07-31 08:35:00,68.0,48.2,29.96,WNW,300,0.0,-999.0,45,-99.99,,,0.00,438.0,cwc,2013-07-31 14:35:00,
2013-07-31 08:45:00,70.1,49.6,29.95,WNW,300,0.0,-999.0,43,-99.99,,,0.00,471.0,cwc,2013-07-31 14:45:00,
2013-07-31 08:50:00,70.8,48.8,29.95,WNW,300,0.0,-999.0,39,-99.99,,,0.00,489.0,cwc,2013-07-31 14:50:00,
2013-07-31 08:55:00,71.3,49.3,29.95,WNW,300,0.0,-999.0,39,-99.99,,,0.00,503.0,cwc,2013-07-31 14:55:00,
2013-07-31 09:00:00,72.1,49.8,29.95,WNW,300,0.0,-999.0,38,-99.99,,,0.00,519.0,cwc,2013-07-31 15:00:00,
2013-07-31 09:05:00,72.6,49.6,29.95,WNW,300,0.0,-999.0,36,-99.99,,,0.00,534.0,cwc,2013-07-31 15:05:00,
2013-07-31 09:10:00,73.0,49.6,29.95,WNW,300,0.0,-999.0,35,-99.99,,,0.00,550.0,cwc,2013-07-31 15:10:00,
2013-07-31 09:15:00,73.6,50.2,29.95,WNW,300,0.0,-999.0,35,-99.99,,,0.00,570.0,cwc,2013-07-31 15:15:00,
2013-07-31 09:20:00,74.5,51.1,29.94,WNW,300,0.0,-999.0,35,-99.99,,,0.00,584.0,cwc,2013-07-31 15:20:00,
2013-07-31 09:25:00,75.6,51.8,29.94,WNW,300,0.0,-999.0,34,-99.99,,,0.00,599.0,cwc,2013-07-31 15:25:00,
2013-07-31 09:30:00,76.3,52.2,29.94,WNW,300,2.0,-999.0,33,-99.99,,,0.00,615.0,cwc,2013-07-31 15:30:00,
2013-07-31 09:35:00,77.1,52.6,29.94,WNW,300,0.0,-999.0,32,-99.99,,,0.00,628.0,cwc,2013-07-31 15:35:00,
2013-07-31 09:40:00,77.9,53.1,29.93,WNW,300,0.0,-999.0,31,-99.99,,,0.00,645.0,cwc,2013-07-31 15:40:00,
2013-07-31 09:45:00,78.7,53.5,29.93,NNE,27,3.0,-999.0,30,-99.99,,,0.00,659.0,cwc,2013-07-31 15:45:00,
2013-07-31 09:50:00,79.0,54.2,29.93,NNE,23,1.0,-999.0,31,-99.99,,,0.00,673.0,cwc,2013-07-31 15:50:00,
2013-07-31 09:55:00,79.6,54.0,29.93,NNE,26,5.0,-999.0,29,-99.99,,,0.00,687.0,cwc,2013-07-31 15:55:00,
2013-07-31 10:00:00,80.0,54.4,29.92,NNE,32,1.0,-999.0,29,-99.99,,,0.00,703.0,cwc,2013-07-31 16:00:00,
2013-07-31 10:05:00,80.5,54.6,29.92,NE,34,3.0,-999.0,28,-99.99,,,0.00,715.0,cwc,2013-07-31 16:05:00,
2013-07-31 10:10:00,80.9,55.0,29.92,NE,38,6.0,-999.0,28,-99.99,,,0.00,728.0,cwc,2013-07-31 16:10:00,
2013-07-31 10:15:00,81.2,55.3,29.92,NE,40,4.0,-999.0,28,-99.99,,,0.00,740.0,cwc,2013-07-31 16:15:00,
2013-07-31 10:20:00,81.7,55.4,29.92,NNE,33,3.0,-999.0,27,-99.99,,,0.00,754.0,cwc,2013-07-31 16:20:00,
2013-07-31 10:25:00,82.2,55.6,29.91,NNE,22,5.0,-999.0,26,-99.99,,,0.00,761.0,cwc,2013-07-31 16:25:00,
2013-07-31 10:30:00,82.6,56.0,29.91,NNE,18,5.0,-999.0,26,-99.99,,,0.00,777.0,cwc,2013-07-31 16:30:00,
2013-07-31 10:35:00,82.8,56.2,29.91,NNE,22,5.0,-999.0,26,-99.99,,,0.00,789.0,cwc,2013-07-31 16:35:00,
2013-07-31 10:40:00,83.1,56.1,29.91,NNE,19,3.0,-999.0,25,-99.99,,,0.00,800.0,cwc,2013-07-31 16:40:00,
2013-07-31 10:45:00,83.6,57.0,29.91,NNE,28,4.0,-999.0,26,-99.99,,,0.00,810.0,cwc,2013-07-31 16:45:00,
2013-07-31 10:50:00,84.1,57.5,29.91,NNE,28,1.0,-999.0,26,-99.99,,,0.00,824.0,cwc,2013-07-31 16:50:00,
2013-07-31 11:00:00,85.4,57.7,29.90,NE,35,1.0,-999.0,23,-99.99,,,0.00,847.0,cwc,2013-07-31 17:00:00,
2013-07-31 11:10:00,86.1,58.0,29.90,NNE,33,0.0,-999.0,22,-99.99,,,0.00,867.0,cwc,2013-07-31 17:10:00,
2013-07-31 11:20:00,87.5,59.1,29.89,NNE,33,0.0,-999.0,21,-99.99,,,0.00,884.0,cwc,2013-07-31 17:20:00,
2013-07-31 11:25:00,88.3,59.5,29.89,NNE,33,0.0,-999.0,20,-99.99,,,0.00,893.0,cwc,2013-07-31 17:25:00,
2013-07-31 11:30:00,88.9,60.1,29.89,NE,40,1.0,-999.0,20,-99.99,,,0.00,902.0,cwc,2013-07-31 17:30:00,
2013-07-31 11:35:00,88.8,59.6,29.88,NE,41,1.0,-999.0,19,-99.99,,,0.00,909.0,cwc,2013-07-31 17:35:00,
2013-07-31 11:40:00,89.1,60.3,29.88,NE,41,3.0,-999.0,20,-99.99,,,0.00,916.0,cwc,2013-07-31 17:40:00,
2013-07-31 11:50:00,89.7,61.3,29.88,NE,35,4.0,-999.0,21,-99.99,,,0.00,928.0,cwc,2013-07-31 17:50:00,
2013-07-31 11:55:00,89.6,60.4,29.87,NE,35,0.0,-999.0,19,-99.99,,,0.00,933.0,cwc,2013-07-31 17:55:00,
2013-07-31 12:00:00,89.5,60.3,29.87,NNE,19,2.0,-999.0,19,-99.99,,,0.00,940.0,cwc,2013-07-31 18:00:00,
2013-07-31 12:05:00,89.6,60.4,29.87,NNE,18,4.0,-999.0,19,-99.99,,,0.00,946.0,cwc,2013-07-31 18:05:00,
2013-07-31 12:10:00,89.5,60.0,29.87,NNE,18,1.0,-999.0,18,-99.99,,,0.00,949.0,cwc,2013-07-31 18:10:00,
2013-07-31 12:15:00,89.5,60.3,29.87,NNE,18,1.0,-999.0,19,-99.99,,,0.00,951.0,cwc,2013-07-31 18:15:00,
2013-07-31 12:20:00,89.9,60.7,29.86,NNE,29,1.0,-999.0,19,-99.99,,,0.00,960.0,cwc,2013-07-31 18:20:00,
2013-07-31 12:25:00,90.4,60.9,29.86,NNE,24,2.0,-999.0,18,-99.99,,,0.00,972.0,cwc,2013-07-31 18:25:00,
2013-07-31 12:30:00,90.7,61.2,29.86,North,10,1.0,-999.0,18,-99.99,,,0.00,972.0,cwc,2013-07-31 18:30:00,
2013-07-31 12:35:00,90.9,61.4,29.86,NNE,28,3.0,-999.0,18,-99.99,,,0.00,986.0,cwc,2013-07-31 18:35:00,
2013-07-31 12:40:00,91.1,61.6,29.86,North,355,1.0,-999.0,18,-99.99,,,0.00,983.0,cwc,2013-07-31 18:40:00,
2013-07-31 12:45:00,91.0,61.8,29.86,NNE,25,4.0,-999.0,19,-99.99,,,0.00,986.0,cwc,2013-07-31 18:45:00,
2013-07-31 12:55:00,91.0,61.5,29.85,WNW,300,2.0,-999.0,18,-99.99,,,0.00,988.0,cwc,2013-07-31 18:55:00,
2013-07-31 13:00:00,91.3,61.8,29.84,NNE,24,7.0,-999.0,18,-99.99,,,0.00,986.0,cwc,2013-07-31 19:00:00,
2013-07-31 13:10:00,91.8,62.3,29.84,SSE,153,2.0,-999.0,18,-99.99,,,0.00,988.0,cwc,2013-07-31 19:10:00,
2013-07-31 13:15:00,92.0,62.1,29.84,South,183,0.0,-999.0,17,-99.99,,,0.00,988.0,cwc,2013-07-31 19:15:00,
2013-07-31 13:20:00,92.4,62.5,29.84,SW,222,4.0,-999.0,17,-99.99,,,0.00,988.0,cwc,2013-07-31 19:20:00,
2013-07-31 13:25:00,92.4,62.5,29.83,NNE,22,0.0,-999.0,17,-99.99,,,0.00,939.0,cwc,2013-07-31 19:25:00,
2013-07-31 13:30:00,92.2,62.3,29.83,South,184,14.0,-999.0,17,-99.99,,,0.00,872.0,cwc,2013-07-31 19:30:00,
2013-07-31 13:35:00,91.3,61.4,29.83,SSW,206,8.0,-999.0,17,-99.99,,,0.00,988.0,cwc,2013-07-31 19:35:00,
2013-07-31 13:40:00,90.7,61.2,29.83,South,180,1.0,-999.0,18,-99.99,,,0.00,991.0,cwc,2013-07-31 19:40:00,
2013-07-31 13:45:00,91.1,61.6,29.82,South,169,2.0,-999.0,18,-99.99,,,0.00,990.0,cwc,2013-07-31 19:45:00,
2013-07-31 13:50:00,91.8,62.3,29.82,SSE,164,3.0,-999.0,18,-99.99,,,0.00,988.0,cwc,2013-07-31 19:50:00,
2013-07-31 13:55:00,92.2,62.7,29.82,North,355,3.0,-999.0,18,-99.99,,,0.00,983.0,cwc,2013-07-31 19:55:00,
2013-07-31 14:00:00,92.3,62.8,29.81,SSW,210,6.0,-999.0,18,-99.99,,,0.00,988.0,cwc,2013-07-31 20:00:00,
2013-07-31 14:10:00,92.4,62.5,29.81,SSW,205,13.0,-999.0,17,-99.99,,,0.00,965.0,cwc,2013-07-31 20:10:00,
2013-07-31 14:15:00,91.7,61.8,29.80,SSE,157,5.0,-999.0,17,-99.99,,,0.00,963.0,cwc,2013-07-31 20:15:00,
2013-07-31 14:20:00,91.5,62.0,29.80,South,175,8.0,-999.0,18,-99.99,,,0.00,963.0,cwc,2013-07-31 20:20:00,
2013-07-31 14:25:00,91.7,61.8,29.79,SSW,213,4.0,-999.0,17,-99.99,,,0.00,949.0,cwc,2013-07-31 20:25:00,
2013-07-31 14:30:00,92.0,62.1,29.79,SSE,161,5.0,-999.0,17,-99.99,,,0.00,944.0,cwc,2013-07-31 20:30:00,
2013-07-31 14:35:00,92.3,62.4,29.79,South,182,13.0,-999.0,17,-99.99,,,0.00,947.0,cwc,2013-07-31 20:35:00,
2013-07-31 14:40:00,92.2,62.3,29.79,South,178,6.0,-999.0,17,-99.99,,,0.00,956.0,cwc,2013-07-31 20:40:00,
2013-07-31 14:45:00,92.2,62.3,29.78,SE,141,3.0,-999.0,17,-99.99,,,0.00,1018.0,cwc,2013-07-31 20:45:00,
2013-07-31 14:50:00,92.8,62.9,29.78,SW,218,9.0,-999.0,17,-99.99,,,0.00,958.0,cwc,2013-07-31 20:50:00,
2013-07-31 14:55:00,93.1,63.2,29.78,WSW,246,2.0,-999.0,17,-99.99,,,0.00,784.0,cwc,2013-07-31 20:55:00,
2013-07-31 15:00:00,93.5,64.0,29.77,East,89,2.0,-999.0,18,-99.99,,,0.00,946.0,cwc,2013-07-31 21:00:00,
2013-07-31 15:05:00,94.0,63.8,29.77,SW,214,7.0,-999.0,16,-99.99,,,0.00,925.0,cwc,2013-07-31 21:05:00,
2013-07-31 15:10:00,93.4,63.5,29.77,WSW,237,9.0,-999.0,17,-99.99,,,0.00,886.0,cwc,2013-07-31 21:10:00,
2013-07-31 15:15:00,92.8,62.9,29.77,SSW,205,9.0,-999.0,17,-99.99,,,0.00,940.0,cwc,2013-07-31 21:15:00,
2013-07-31 15:25:00,92.6,62.7,29.76,SSE,164,4.0,-999.0,17,-99.99,,,0.00,860.0,cwc,2013-07-31 21:25:00,
2013-07-31 15:30:00,92.7,62.8,29.76,South,188,14.0,-999.0,17,-99.99,,,0.00,856.0,cwc,2013-07-31 21:30:00,
2013-07-31 15:35:00,92.2,62.7,29.76,SSW,194,13.0,-999.0,18,-99.99,,,0.00,847.0,cwc,2013-07-31 21:35:00,
2013-07-31 15:40:00,92.2,62.3,29.76,SSW,211,8.0,-999.0,17,-99.99,,,0.00,837.0,cwc,2013-07-31 21:40:00,
2013-07-31 15:45:00,92.2,62.3,29.75,SSW,202,12.0,-999.0,17,-99.99,,,0.00,838.0,cwc,2013-07-31 21:45:00,
2013-07-31 15:55:00,92.6,62.7,29.75,SSW,204,12.0,-999.0,17,-99.99,,,0.00,853.0,cwc,2013-07-31 21:55:00,
2013-07-31 16:00:00,92.5,62.6,29.74,WSW,245,10.0,-999.0,17,-99.99,,,0.00,847.0,cwc,2013-07-31 22:00:00,
2013-07-31 16:05:00,92.3,62.4,29.75,SSW,196,13.0,-999.0,17,-99.99,,,0.00,830.0,cwc,2013-07-31 22:05:00,
2013-07-31 16:10:00,92.1,62.6,29.74,WSW,237,10.0,-999.0,18,-99.99,,,0.00,826.0,cwc,2013-07-31 22:10:00,
2013-07-31 16:15:00,91.5,62.0,29.74,South,188,7.0,-999.0,18,-99.99,,,0.00,647.0,cwc,2013-07-31 22:15:00,
2013-07-31 16:25:00,91.4,61.9,29.74,South,179,12.0,-999.0,18,-99.99,,,0.00,181.0,cwc,2013-07-31 22:25:00,
2013-07-31 16:30:00,91.8,62.3,29.74,SSW,196,13.0,-999.0,18,-99.99,,,0.00,738.0,cwc,2013-07-31 22:30:00,
2013-07-31 16:35:00,91.6,62.1,29.73,WSW,244,0.0,-999.0,18,-99.99,,,0.00,710.0,cwc,2013-07-31 22:35:00,
2013-07-31 16:45:00,92.5,63.0,29.73,SSW,202,7.0,-999.0,18,-99.99,,,0.00,677.0,cwc,2013-07-31 22:45:00,
2013-07-31 16:50:00,92.3,62.8,29.72,SSW,207,3.0,-999.0,18,-99.99,,,0.00,666.0,cwc,2013-07-31 22:50:00,
2013-07-31 16:55:00,92.3,62.8,29.72,West,275,2.0,-999.0,18,-99.99,,,0.00,670.0,cwc,2013-07-31 22:55:00,
2013-07-31 17:00:00,92.2,62.7,29.72,SSW,196,6.0,-999.0,18,-99.99,,,0.00,193.0,cwc,2013-07-31 23:00:00,
2013-07-31 17:05:00,92.0,62.5,29.72,West,275,10.0,-999.0,18,-99.99,,,0.00,638.0,cwc,2013-07-31 23:05:00,
2013-07-31 17:10:00,91.9,62.4,29.72,SW,225,5.0,-999.0,18,-99.99,,,0.00,628.0,cwc,2013-07-31 23:10:00,
2013-07-31 17:15:00,91.7,62.2,29.72,SW,232,3.0,-999.0,18,-99.99,,,0.00,613.0,cwc,2013-07-31 23:15:00,
2013-07-31 17:20:00,91.1,61.6,29.72,SW,215,3.0,-999.0,18,-99.99,,,0.00,134.0,cwc,2013-07-31 23:20:00,
2013-07-31 17:25:00,90.9,61.4,29.72,SW,215,2.0,-999.0,18,-99.99,,,0.00,137.0,cwc,2013-07-31 23:25:00,
2013-07-31 17:30:00,91.0,61.8,29.72,South,191,13.0,-999.0,19,-99.99,,,0.00,582.0,cwc,2013-07-31 23:30:00,
2013-07-31 17:35:00,91.0,61.8,29.72,SW,227,6.0,-999.0,19,-99.99,,,0.00,573.0,cwc,2013-07-31 23:35:00,
2013-07-31 17:40:00,90.7,61.5,29.72,South,180,8.0,-999.0,19,-99.99,,,0.00,199.0,cwc,2013-07-31 23:40:00,
2013-07-31 17:45:00,90.4,61.2,29.72,SW,216,8.0,-999.0,19,-99.99,,,0.00,195.0,cwc,2013-07-31 23:45:00,
2013-07-31 17:55:00,89.7,60.5,29.72,SSW,202,10.0,-999.0,19,-99.99,,,0.00,169.0,cwc,2013-07-31 23:55:00,
2013-07-31 18:00:00,89.2,60.4,29.72,SW,218,2.0,-999.0,20,-99.99,,,0.00,165.0,cwc,2013-08-01 00:00:00,
2013-07-31 18:10:00,89.1,60.3,29.72,SSW,203,8.0,-999.0,20,-99.99,,,0.00,155.0,cwc,2013-08-01 00:10:00,
2013-07-31 18:15:00,89.0,60.2,29.71,South,187,3.0,-999.0,20,-99.99,,,0.00,156.0,cwc,2013-08-01 00:15:00,
2013-07-31 18:20:00,89.0,60.2,29.72,South,176,6.0,-999.0,20,-99.99,,,0.00,137.0,cwc,2013-08-01 00:20:00,
2013-07-31 18:25:00,89.0,60.2,29.72,SSW,201,5.0,-999.0,20,-99.99,,,0.00,128.0,cwc,2013-08-01 00:25:00,
2013-07-31 18:30:00,89.0,60.2,29.72,SW,224,6.0,-999.0,20,-99.99,,,0.00,123.0,cwc,2013-08-01 00:30:00,
2013-07-31 18:35:00,89.1,60.3,29.72,SSE,155,6.0,-999.0,20,-99.99,,,0.00,121.0,cwc,2013-08-01 00:35:00,
2013-07-31 18:45:00,89.1,60.3,29.72,SSW,194,2.0,-999.0,20,-99.99,,,0.00,121.0,cwc,2013-08-01 00:45:00,
2013-07-31 18:50:00,89.0,60.2,29.71,South,172,4.0,-999.0,20,-99.99,,,0.00,113.0,cwc,2013-08-01 00:50:00,
2013-07-31 18:55:00,88.9,60.5,29.72,South,180,6.0,-999.0,21,-99.99,,,0.00,98.0,cwc,2013-08-01 00:55:00,
2013-07-31 19:00:00,88.8,60.0,29.72,South,176,5.0,-999.0,20,-99.99,,,0.00,86.0,cwc,2013-08-01 01:00:00,
2013-07-31 19:05:00,88.7,59.9,29.72,South,177,2.0,-999.0,20,-99.99,,,0.00,70.0,cwc,2013-08-01 01:05:00,
2013-07-31 19:10:00,88.6,59.8,29.72,South,186,8.0,-999.0,20,-99.99,,,0.00,51.0,cwc,2013-08-01 01:10:00,
2013-07-31 19:15:00,88.4,59.6,29.72,South,177,5.0,-999.0,20,-99.99,,,0.00,40.0,cwc,2013-08-01 01:15:00,
2013-07-31 19:25:00,88.2,59.8,29.72,South,186,4.0,-999.0,21,-99.99,,,0.00,26.0,cwc,2013-08-01 01:25:00,
2013-07-31 19:30:00,88.0,59.6,29.72,South,184,5.0,-999.0,21,-99.99,,,0.00,21.0,cwc,2013-08-01 01:30:00,
2013-07-31 19:35:00,87.8,59.4,29.72,South,185,6.0,-999.0,21,-99.99,,,0.00,19.0,cwc,2013-08-01 01:35:00,
2013-07-31 19:40:00,87.7,59.3,29.71,South,189,4.0,-999.0,21,-99.99,,,0.00,16.0,cwc,2013-08-01 01:40:00,
2013-07-31 19:45:00,87.6,59.2,29.71,South,189,3.0,-999.0,21,-99.99,,,0.00,12.0,cwc,2013-08-01 01:45:00,
2013-07-31 19:55:00,87.3,58.9,29.71,South,190,1.0,-999.0,21,-99.99,,,0.00,9.0,cwc,2013-08-01 01:55:00,
2013-07-31 20:00:00,87.1,58.7,29.71,South,190,2.0,-999.0,21,-99.99,,,0.00,5.0,cwc,2013-08-01 02:00:00,
2013-07-31 20:05:00,86.9,58.5,29.71,South,190,3.0,-999.0,21,-99.99,,,0.00,0.0,cwc,2013-08-01 02:05:00,
2013-07-31 20:10:00,86.6,58.2,29.71,South,190,0.0,-999.0,21,-99.99,,,0.00,0.0,cwc,2013-08-01 02:10:00,
2013-07-31 20:15:00,86.4,58.0,29.71,South,190,0.0,-999.0,21,-99.99,,,0.00,0.0,cwc,2013-08-01 02:15:00,
2013-07-31 20:20:00,86.2,58.1,29.72,South,190,1.0,-999.0,22,-99.99,,,0.00,0.0,cwc,2013-08-01 02:20:00,
2013-07-31 20:30:00,85.0,58.4,29.72,NE,44,4.0,-999.0,26,-99.99,,,0.00,0.0,cwc,2013-08-01 02:30:00,
2013-07-31 20:35:00,84.5,57.9,29.72,NE,45,1.0,-999.0,26,-99.99,,,0.00,0.0,cwc,2013-08-01 02:35:00,
2013-07-31 20:40:00,84.2,58.3,29.72,North,355,6.0,-999.0,28,-99.99,,,0.00,0.0,cwc,2013-08-01 02:40:00,
2013-07-31 20:45:00,83.6,58.8,29.73,NE,56,2.0,-999.0,31,-99.99,,,0.00,0.0,cwc,2013-08-01 02:45:00,
2013-07-31 20:55:00,82.3,58.2,29.73,NE,36,3.0,-999.0,33,-99.99,,,0.00,0.0,cwc,2013-08-01 02:55:00,
2013-07-31 21:00:00,81.7,57.9,29.73,East,87,2.0,-999.0,34,-99.99,,,0.00,0.0,cwc,2013-08-01 03:00:00,
2013-07-31 21:05:00,81.2,58.2,29.74,SE,125,3.0,-999.0,36,-99.99,,,0.00,0.0,cwc,2013-08-01 03:05:00,
2013-07-31 21:10:00,80.7,57.7,29.74,ESE,111,1.0,-999.0,36,-99.99,,,0.00,0.0,cwc,2013-08-01 03:10:00,
2013-07-31 21:15:00,80.3,57.6,29.75,ESE,120,0.0,-999.0,37,-99.99,,,0.00,0.0,cwc,2013-08-01 03:15:00,
2013-07-31 21:25:00,79.5,57.5,29.75,SSE,159,0.0,-999.0,39,-99.99,,,0.00,0.0,cwc,2013-08-01 03:25:00,
2013-07-31 21:30:00,79.1,57.5,29.75,SE,138,3.0,-999.0,40,-99.99,,,0.00,0.0,cwc,2013-08-01 03:30:00,
2013-07-31 21:35:00,78.7,57.1,29.75,SE,140,2.0,-999.0,40,-99.99,,,0.00,0.0,cwc,2013-08-01 03:35:00,
2013-07-31 21:40:00,78.7,57.5,29.76,SE,144,0.0,-999.0,41,-99.99,,,0.00,0.0,cwc,2013-08-01 03:40:00,
2013-07-31 21:45:00,78.5,57.3,29.75,SE,144,0.0,-999.0,41,-99.99,,,0.00,0.0,cwc,2013-08-01 03:45:00,
2013-07-31 21:50:00,78.4,57.2,29.76,SE,137,1.0,-999.0,41,-99.99,,,0.00,0.0,cwc,2013-08-01 03:50:00,
2013-07-31 21:55:00,78.3,57.1,29.76,SE,138,0.0,-999.0,41,-99.99,,,0.00,0.0,cwc,2013-08-01 03:55:00,
2013-07-31 22:05:00,78.2,57.0,29.77,SE,138,1.0,-999.0,41,-99.99,,,0.00,0.0,cwc,2013-08-01 04:05:00,
2013-07-31 22:15:00,78.1,56.9,29.77,East,87,1.0,-999.0,41,-99.99,,,0.00,0.0,cwc,2013-08-01 04:15:00,
2013-07-31 22:20:00,78.2,57.0,29.77,SSE,168,0.0,-999.0,41,-99.99,,,0.00,0.0,cwc,2013-08-01 04:20:00,
2013-07-31 22:25:00,78.1,56.9,29.77,SSE,165,2.0,-999.0,41,-99.99,,,0.00,0.0,cwc,2013-08-01 04:25:00,
2013-07-31 22:30:00,78.0,56.8,29.77,SSE,165,0.0,-999.0,41,-99.99,,,0.00,0.0,cwc,2013-08-01 04:30:00,
2013-07-31 22:35:00,77.8,56.6,29.77,SSE,164,0.0,-999.0,41,-99.99,,,0.00,0.0,cwc,2013-08-01 04:35:00,
2013-07-31 22:40:00,77.6,56.4,29.77,SE,125,0.0,-999.0,41,-99.99,,,0.00,0.0,cwc,2013-08-01 04:40:00,
2013-07-31 22:45:00,77.5,56.3,29.77,SE,125,1.0,-999.0,41,-99.99,,,0.00,0.0,cwc,2013-08-01 04:45:00,
2013-07-31 22:50:00,77.3,56.1,29.77,SE,125,2.0,-999.0,41,-99.99,,,0.00,0.0,cwc,2013-08-01 04:50:00,
2013-07-31 22:55:00,77.2,56.0,29.77,SE,125,0.0,-999.0,41,-99.99,,,0.00,0.0,cwc,2013-08-01 04:55:00,
2013-07-31 23:00:00,77.1,55.9,29.77,SE,125,0.0,-999.0,41,-99.99,,,0.00,0.0,cwc,2013-08-01 05:00:00,
2013-07-31 23:05:00,76.9,55.7,29.77,SE,125,1.0,-999.0,41,-99.99,,,0.00,0.0,cwc,2013-08-01 05:05:00,
2013-07-31 23:10:00,76.8,55.6,29.77,ESE,119,5.0,-999.0,41,-99.99,,,0.00,0.0,cwc,2013-08-01 05:10:00,
2013-07-31 23:15:00,76.6,56.1,29.77,ESE,105,2.0,-999.0,43,-99.99,,,0.00,0.0,cwc,2013-08-01 05:15:00,
2013-07-31 23:20:00,76.2,55.7,29.77,ESE,105,2.0,-999.0,43,-99.99,,,0.00,0.0,cwc,2013-08-01 05:20:00,
2013-07-31 23:25:00,75.9,55.4,29.77,ESE,105,0.0,-999.0,43,-99.99,,,0.00,0.0,cwc,2013-08-01 05:25:00,
2013-07-31 23:30:00,75.8,55.6,29.77,ESE,105,0.0,-999.0,44,-99.99,,,0.00,0.0,cwc,2013-08-01 05:30:00,
2013-07-31 23:40:00,75.5,55.0,29.77,ESE,105,0.0,-999.0,43,-99.99,,,0.00,0.0,cwc,2013-08-01 05:40:00,
2013-07-31 23:45:00,75.6,55.1,29.77,ESE,105,0.0,-999.0,43,-99.99,,,0.00,0.0,cwc,2013-08-01 05:45:00,
2013-07-31 23:50:00,75.5,55.3,29.77,ESE,105,0.0,-999.0,44,-99.99,,,0.00,0.0,cwc,2013-08-01 05:50:00,
2013-07-31 23:55:00,75.2,55.0,29.77,ESE,105,2.0,-999.0,44,-99.99,,,0.00,0.0,cwc,2013-08-01 05:55:00,